Regional Weather Roundup
Issued by NWS Goodland, KS

Home | Current Version | Previous Version | Text Only | Print | Product List | Glossary On
Versions: 1 2 3 4 5 6 7 8 9 10 11 12 13 14 15 16 17 18 19 20 21 22 23 24 25 26 27 28 29 30 31 32 33 34 35 36 37 38 39 40 41 42 43 44 45 46 47 48 49 50
000
ASUS43 KGLD 280659
RWRGLD

GOODLAND FORECAST AREA HOURLY WEATHER ROUNDUP
NATIONAL WEATHER SERVICE GOODLAND KS
1200 AM MST FRI NOV 28 2014

...OFFICIAL OBSERVATIONS...

CITY           SKY/WX    TMP DP  RH WIND       PRES   REMARKS
GOODLAND KS    CLEAR     38  25  59 W6        30.03F
HILL CITY KS   CLEAR     40  27  59 W8        29.98F
IMPERIAL NEB   CLEAR     39  26  59 W12       29.97F
MCCOOK NEB     NOT AVBL
AKRON CO       CLEAR     44  24  45 SW12      30.03F
BURLINGTON CO  CLEAR     36  22  56 SW9       30.04F
LIMON CO       CLEAR     25  18  74 N5        30.10F
$$

...UNOFFICIAL OBSERVATIONS...

CITY           SKY/WX    TMP DP  RH WIND       PRES   REMARKS
COLBY KS       CLEAR     45  30  57 NW13      30.00F
GOVE KS          N/A     34  32  92 MISG        N/A
NORTON KS      CLEAR     34  21  60 SW13      29.95F
SHARON SPRINGS   N/A     38  26  61 W8          N/A
TRIBUNE KS     CLEAR     34  27  75 W6        30.06F
TRENTON NEB      N/A     41  32  70 W9          N/A
$$


USA.gov is the U.S. government's official web portal to all federal, state and local government web resources and services.